Simultaneous Nadir Overpasses (SNOs) Predictions

Prediction of SNOs between AQUA and GOES-15 Satellite Orbit:

Table of predicted SNOs for the next 14.0 days since TLE Epoch: 6/23/2012
Index Date Time (AQUA) AQUA Lat,Lon GOES-15 Lat,Lon Distance(km) Time Diff (sec)
1 06/23/2012 10:44:12 0.28,-137.11 -0.20,-135.02 238.19 80
2 06/25/2012 10:32:03 -0.37,-134.17 -0.19,-135.08 103.14 80
3 06/25/2012 22:53:29 -0.68,-139.38 0.21,-135.10 486.59 80
4 06/27/2012 10:19:56 -1.03,-131.24 -0.19,-135.13 442.85 80
5 06/27/2012 22:41:22 -0.05,-136.44 0.21,-135.15 147.28 80
6 06/29/2012 22:29:17 0.59,-133.52 0.22,-135.19 190.21 80
7 06/30/2012 10:50:34 0.53,-138.68 -0.24,-135.20 396.51 80
8 07/02/2012 10:38:32 -0.15,-135.77 -0.24,-135.23 61.15 80
9 07/04/2012 10:26:31 -0.78,-132.86 -0.24,-135.26 273.17 80
10 07/04/2012 22:47:58 -0.34,-138.06 0.26,-135.26 318.40 80




NCC Satellite Simultaneous Nadir Overpasses (SNOs) Prediction Service
